This is the latest recevied weather packets stored in our database for station/object KD2VWU. If no packets are shown the sender has not sent any weather packets the latest 10 day(s).
| Time | Temp. | Humidity | Pressure | Rain* | Wind** | Luminosity | Snow |
|---|---|---|---|---|---|---|---|
| 1777497776 | 15° C | 66% | 1008.8 hPa | 0 mm | - | - | - |
| 1777497473 | 15° C | 67% | 1008.8 hPa | 0 mm | - | - | - |
| 1777497169 | 15° C | 67% | 1008.7 hPa | 0 mm | - | - | - |
| 1777496866 | 15° C | 63% | 1008.7 hPa | 0 mm | - | - | - |
| 1777496563 | 15.56° C | 65% | 1008.8 hPa | 0 mm | - | - | - |
| 1777494742 | 15.56° C | 62% | 1008.6 hPa | 0 mm | - | - | - |
| 1777494439 | 15.56° C | 63% | 1008.7 hPa | 0 mm | - | - | - |
| 1777494135 | 15.56° C | 63% | 1009.1 hPa | 0 mm | - | - | - |
| 1777493833 | 15.56° C | 63% | 1009.1 hPa | 0 mm | - | - | - |
| 1777493228 | 16.11° C | 61% | 1009.3 hPa | 0 mm | - | - | - |
| 1777492316 | 16.67° C | 61% | 1009.1 hPa | 0 mm | - | - | - |
| 1777491710 | 17.22° C | 59% | 1009.4 hPa | 0 mm | - | - | - |
| 1777490496 | 18.33° C | 58% | 1009.6 hPa | 0 mm | - | - | - |
| 1777488376 | 17.78° C | 59% | 1009.9 hPa | 0 mm | - | - | - |
| 1777486257 | 18.33° C | 57% | 1010.4 hPa | 0 mm | - | - | - |
| 1777483226 | 18.33° C | 55% | 1010.5 hPa | 0 mm | - | - | - |
| 1777480497 | 18.89° C | 60% | 1011.2 hPa | 0 mm | - | - | - |
| 1777480193 | 19.44° C | 54% | 1011 hPa | 0 mm | - | - | - |
| 1777478981 | 17.78° C | 55% | 1011.4 hPa | 0 mm | - | - | - |
| 1777477463 | 17.78° C | 56% | 1011.6 hPa | 0 mm | - | - | - |
| 1777475945 | 17.22° C | 56% | 1011.6 hPa | 0 mm | - | - | - |
| 1777475338 | 17.22° C | 55% | 1011.8 hPa | 0 mm | - | - | - |
| 1777474730 | 16.67° C | 59% | 1011.8 hPa | 0 mm | - | - | - |
| 1777474123 | 15.56° C | 61% | 1011.7 hPa | 0 mm | - | - | - |
| 1777473213 | 15.56° C | 59% | 1011.9 hPa | 0 mm | - | - | - |
* Rain latest hour (hover to see other rain measurements)
** Current wind speed in m/s (hover to see current wind gust speed)